| time (UTC) | temp F | wind direction | speed MPH | gust MPH | rain 1hr in | rain 24hr in | rain mn in | humidity % | barometer mb |
| 20260502213524 | 55 | 149 | 4.0 | 9.0 | 0.00 | 0.00 | 0.00 | 19 | 1022.7 |
| 20260502212518 | 55 | 160 | 4.0 | 7.0 | 0.00 | 0.00 | 0.00 | 22 | 1022.8 |
| 20260502211518 | 55 | 226 | 5.0 | 9.0 | 0.00 | 0.00 | 0.00 | 24 | 1023.0 |
| 20260502210519 | 55 | 236 | 5.0 | 10.0 | 0.00 | 0.00 | 0.00 | 25 | 1023.1 |
| 20260502205522 | 54 | 119 | 2.0 | 4.0 | 0.00 | 0.00 | 0.00 | 22 | 1023.3 |
| 20260502204539 | 53 | 18 | 4.0 | 9.0 | 0.00 | 0.00 | 0.00 | 22 | 1023.4 |
| 20260502203519 | 54 | 29 | 5.0 | 10.0 | 0.00 | 0.00 | 0.00 | 24 | 1023.4 |
| 20260502202519 | 53 | 54 | 5.0 | 10.0 | 0.00 | 0.00 | 0.00 | 25 | 1023.5 |
| 20260502201520 | 53 | 0 | 5.0 | 7.0 | 0.00 | 0.00 | 0.00 | 25 | 1023.6 |
| 20260502200519 | 52 | 196 | 4.0 | 9.0 | 0.00 | 0.00 | 0.00 | 26 | 1023.7 |
| 20260502195521 | 52 | 204 | 6.0 | 14.0 | 0.00 | 0.00 | 0.00 | 26 | 1023.7 |
| 20260502194520 | 52 | 198 | 7.0 | 15.0 | 0.00 | 0.00 | 0.00 | 29 | 1023.7 |
| 20260502193520 | 52 | 260 | 5.0 | 13.0 | 0.00 | 0.00 | 0.00 | 29 | 1023.9 |
| 20260502192521 | 51 | 219 | 5.0 | 8.0 | 0.00 | 0.00 | 0.00 | 28 | 1024.0 |
| 20260502191537 | 51 | 181 | 8.0 | 15.0 | 0.00 | 0.00 | 0.00 | 28 | 1024.0 |
| 20260502190538 | 51 | 204 | 6.0 | 14.0 | 0.00 | 0.00 | 0.00 | 28 | 1024.2 |
| 20260502185521 | 50 | 283 | 5.0 | 15.0 | 0.00 | 0.00 | 0.00 | 28 | 1024.3 |
| 20260502184521 | 50 | 54 | 4.0 | 9.0 | 0.00 | 0.00 | 0.00 | 26 | 1024.5 |
| 20260502183521 | 50 | 173 | 4.0 | 8.0 | 0.00 | 0.00 | 0.00 | 26 | 1024.6 |
| 20260502182542 | 49 | 52 | 3.0 | 9.0 | 0.00 | 0.00 | 0.00 | 28 | 1024.8 |
| 20260502181538 | 49 | 186 | 6.0 | 12.0 | 0.00 | 0.00 | 0.00 | 30 | 1024.8 |
| 20260502180542 | 50 | 206 | 5.0 | 8.0 | 0.00 | 0.00 | 0.00 | 29 | 1025.0 |
| 20260502163517 | 46 | 206 | 5.0 | 9.0 | 0.00 | 0.00 | 0.00 | 33 | 1025.4 |
| 20260502162517 | 46 | 231 | 4.0 | 9.0 | 0.00 | 0.00 | 0.00 | 35 | 1025.4 |
| 20260502161524 | 45 | 200 | 5.0 | 9.0 | 0.00 | 0.00 | 0.00 | 35 | 1025.5 |
| 20260502160524 | 45 | 203 | 4.0 | 8.0 | 0.00 | 0.00 | 0.00 | 33 | 1025.4 |
| 20260502151608 | 43 | 158 | 1.0 | 3.0 | 0.00 | 0.00 | 0.00 | 49 | 1025.8 |
| 20260502150528 | 41 | 266 | 2.0 | 4.0 | 0.00 | 0.00 | 0.00 | 58 | 1025.7 |
| 20260502130530 | 30 | 115 | 2.0 | 3.0 | 0.00 | 0.00 | 0.00 | 82 | 1025.5 |
| 20260502123531 | 25 | 134 | 3.0 | 5.0 | 0.00 | 0.00 | 0.00 | 86 | 1025.1 |
| 20260502122531 | 25 | 124 | 3.0 | 4.0 | 0.00 | 0.00 | 0.00 | 86 | 1025.1 |
| 20260502121523 | 24 | 133 | 3.0 | 5.0 | 0.00 | 0.00 | 0.00 | 87 | 1025.1 |
| 20260502120531 | 24 | 138 | 4.0 | 5.0 | 0.00 | 0.00 | 0.00 | 87 | 1025.2 |
| 20260502115552 | 23 | 159 | 3.0 | 5.0 | 0.00 | 0.00 | 0.00 | 86 | 1025.1 |
| 20260502114532 | 23 | 140 | 2.0 | 2.0 | 0.00 | 0.00 | 0.00 | 87 | 1025.0 |
| 20260502113532 | 23 | 127 | 2.0 | 3.0 | 0.00 | 0.00 | 0.00 | 87 | 1025.0 |
| 20260502112517 | 24 | 169 | 2.0 | 3.0 | 0.00 | 0.00 | 0.00 | 86 | 1024.9 |
| 20260502111517 | 25 | 176 | 3.0 | 4.0 | 0.00 | 0.00 | 0.00 | 85 | 1024.9 |
| 20260502110518 | 24 | 152 | 3.0 | 4.0 | 0.00 | 0.00 | 0.00 | 88 | 1025.0 |
| 20260502105518 | 23 | 182 | 2.0 | 3.0 | 0.00 | 0.00 | 0.00 | 88 | 1025.0 |
| 20260502104518 | 23 | 138 | 2.0 | 3.0 | 0.00 | 0.00 | 0.00 | 88 | 1024.9 |
| 20260502103518 | 23 | 137 | 2.0 | 4.0 | 0.00 | 0.00 | 0.00 | 88 | 1024.9 |
| 20260502102518 | 23 | 167 | 3.0 | 3.0 | 0.00 | 0.00 | 0.00 | 88 | 1024.9 |
| 20260502101519 | 24 | 220 | 1.0 | 2.0 | 0.00 | 0.00 | 0.00 | 87 | 1024.8 |
| 20260502100519 | 25 | 140 | 3.0 | 3.0 | 0.00 | 0.00 | 0.00 | 87 | 1024.8 |
| 20260502091520 | 24 | 147 | 3.0 | 3.0 | 0.00 | 0.00 | 0.00 | 87 | 1024.7 |
| 20260502090540 | 24 | 208 | 3.0 | 4.0 | 0.00 | 0.00 | 0.00 | 88 | 1024.6 |
| 20260502071522 | 29 | 154 | 3.0 | 3.0 | 0.00 | 0.00 | 0.00 | 85 | 1024.9 |
| 20260502070523 | 29 | 128 | 1.0 | 4.0 | 0.00 | 0.00 | 0.00 | 85 | 1024.7 |
| 20260502065516 | 29 | 141 | 5.0 | 6.0 | 0.00 | 0.00 | 0.00 | 84 | 1024.6 |
| 20260502064516 | 30 | 139 | 5.0 | 6.0 | 0.00 | 0.00 | 0.00 | 84 | 1024.5 |
| 20260502063523 | 30 | 138 | 4.0 | 6.0 | 0.00 | 0.00 | 0.00 | 83 | 1024.6 |
| 20260502062523 | 30 | 126 | 4.0 | 7.0 | 0.00 | 0.00 | 0.00 | 84 | 1024.5 |
| 20260502061523 | 30 | 130 | 4.0 | 6.0 | 0.00 | 0.00 | 0.00 | 84 | 1024.4 |
| 20260502060517 | 30 | 138 | 5.0 | 6.0 | 0.00 | 0.00 | 0.00 | 84 | 1024.4 |
| 20260502055517 | 29 | 136 | 5.0 | 7.0 | 0.00 | 0.00 | 0.00 | 85 | 1024.4 |
| 20260502054518 | 29 | 141 | 5.0 | 6.0 | 0.00 | 0.00 | 0.00 | 85 | 1024.4 |
| 20260502053524 | 29 | 134 | 4.0 | 5.0 | 0.00 | 0.00 | 0.00 | 85 | 1024.4 |
| 20260502052524 | 30 | 179 | 4.0 | 4.0 | 0.00 | 0.00 | 0.00 | 85 | 1024.4 |
| 20260502051524 | 29 | 151 | 3.0 | 4.0 | 0.00 | 0.00 | 0.00 | 87 | 1024.4 |
| 20260502050525 | 30 | 188 | 3.0 | 5.0 | 0.00 | 0.00 | 0.00 | 86 | 1024.6 |
| 20260502045518 | 30 | 175 | 4.0 | 8.0 | 0.00 | 0.00 | 0.00 | 86 | 1024.6 |
| 20260502044519 | 30 | 141 | 4.0 | 5.0 | 0.00 | 0.00 | 0.00 | 85 | 1024.6 |
| 20260502043525 | 31 | 142 | 4.0 | 5.0 | 0.00 | 0.00 | 0.00 | 84 | 1024.5 |
| 20260502042545 | 32 | 141 | 4.0 | 4.0 | 0.00 | 0.00 | 0.00 | 83 | 1024.5 |
| 20260502041525 | 32 | 134 | 3.0 | 4.0 | 0.00 | 0.00 | 0.00 | 84 | 1024.5 |
| 20260502040545 | 32 | 133 | 3.0 | 5.0 | 0.00 | 0.00 | 0.00 | 84 | 1024.4 |
| 20260502035526 | 33 | 139 | 3.0 | 4.0 | 0.00 | 0.00 | 0.00 | 83 | 1024.3 |
| 20260502034526 | 34 | 104 | 3.0 | 4.0 | 0.00 | 0.00 | 0.00 | 83 | 1024.3 |
| 20260502033526 | 35 | 132 | 3.0 | 3.0 | 0.00 | 0.00 | 0.00 | 83 | 1024.3 |
| 20260502032526 | 35 | 174 | 2.0 | 3.0 | 0.00 | 0.00 | 0.00 | 81 | 1024.1 |
| 20260502031527 | 35 | 141 | 3.0 | 4.0 | 0.00 | 0.00 | 0.00 | 80 | 1024.0 |
| 20260502030527 | 35 | 156 | 3.0 | 4.0 | 0.00 | 0.00 | 0.00 | 82 | 1023.8 |
| 20260502025527 | 35 | 162 | 2.0 | 3.0 | 0.00 | 0.00 | 0.00 | 81 | 1023.7 |
| 20260502024527 | 35 | 174 | 3.0 | 5.0 | 0.00 | 0.00 | 0.00 | 80 | 1023.4 |
| 20260502023547 | 35 | 142 | 4.0 | 5.0 | 0.00 | 0.00 | 0.00 | 82 | 1023.4 |
| 20260502022642 | 35 | 174 | 4.0 | 5.0 | 0.00 | 0.00 | 0.00 | 81 | 1023.2 |
| 20260502021541 | 35 | 175 | 4.0 | 5.0 | 0.00 | 0.00 | 0.00 | 80 | 1023.0 |
| 20260502020542 | 36 | 180 | 4.0 | 6.0 | 0.00 | 0.00 | 0.00 | 80 | 1022.8 |
| 20260502015522 | 36 | 196 | 7.0 | 8.0 | 0.00 | 0.00 | 0.00 | 78 | 1022.6 |
| 20260502014522 | 37 | 193 | 5.0 | 7.0 | 0.00 | 0.00 | 0.00 | 76 | 1022.4 |
| 20260502013524 | 38 | 219 | 7.0 | 10.0 | 0.00 | 0.00 | 0.00 | 73 | 1022.1 |
| 20260502012528 | 40 | 225 | 3.0 | 4.0 | 0.00 | 0.00 | 0.00 | 65 | 1022.0 |
| 20260502011529 | 40 | 183 | 3.0 | 4.0 | 0.00 | 0.00 | 0.00 | 64 | 1021.9 |
| 20260502010517 | 41 | 161 | 3.0 | 5.0 | 0.00 | 0.00 | 0.00 | 59 | 1021.8 |
| 20260502005518 | 41 | 64 | 5.0 | 6.0 | 0.00 | 0.00 | 0.00 | 55 | 1021.6 |
| 20260502004529 | 42 | 79 | 2.0 | 3.0 | 0.00 | 0.00 | 0.00 | 53 | 1021.5 |
| 20260502003529 | 42 | 74 | 2.0 | 5.0 | 0.00 | 0.00 | 0.00 | 51 | 1021.5 |
| 20260502002523 | 42 | 69 | 6.0 | 9.0 | 0.00 | 0.00 | 0.00 | 53 | 1021.4 |
| 20260502001518 | 42 | 62 | 7.0 | 10.0 | 0.00 | 0.00 | 0.00 | 54 | 1021.3 |
| 20260502000530 | 42 | 51 | 3.0 | 4.0 | 0.00 | 0.00 | 0.00 | 53 | 1021.2 |
| 20260501235518 | 42 | 72 | 5.0 | 6.0 | 0.00 | 0.00 | 0.00 | 53 | 1021.1 |
| 20260501234518 | 42 | 66 | 6.0 | 9.0 | 0.00 | 0.00 | 0.00 | 55 | 1021.0 |
| 20260501233558 | 44 | 60 | 7.0 | 10.0 | 0.00 | 0.00 | 0.00 | 54 | 1020.9 |
| 20260501232518 | 44 | 358 | 4.0 | 8.0 | 0.00 | 0.00 | 0.00 | 51 | 1020.9 |
| 20260501231531 | 43 | 325 | 3.0 | 5.0 | 0.00 | 0.00 | 0.00 | 51 | 1020.8 |
| 20260501230531 | 42 | 360 | 3.0 | 5.0 | 0.00 | 0.00 | 0.00 | 50 | 1020.9 |
| 20260501225519 | 42 | 64 | 4.0 | 7.0 | 0.00 | 0.00 | 0.00 | 51 | 1020.9 |
| 20260501224519 | 42 | 45 | 8.0 | 10.0 | 0.00 | 0.00 | 0.00 | 54 | 1020.9 |
| 20260501223520 | 42 | 61 | 4.0 | 7.0 | 0.00 | 0.00 | 0.00 | 55 | 1020.9 |
| 20260501222519 | 42 | 14 | 3.0 | 5.0 | 0.00 | 0.00 | 0.00 | 55 | 1021.0 |
| 20260501221520 | 42 | 13 | 2.0 | 7.0 | 0.00 | 0.00 | 0.00 | 54 | 1021.1 |
| 20260501220520 | 41 | 54 | 6.0 | 9.0 | 0.00 | 0.00 | 0.00 | 57 | 1021.1 |
| 20260501215520 | 43 | 15 | 4.0 | 8.0 | 0.00 | 0.00 | 0.00 | 59 | 1021.1 |
| 20260501214520 | 43 | 34 | 4.0 | 7.0 | 0.00 | 0.00 | 0.00 | 59 | 1021.2 |